[[{"header":{"parameterUnit":"m.s-1","parameterCategory":1,"la1":30.2991,"la2":30.254,"lo1":-89.0895,"lo2":-89.0444,"dy":0.0017,"dx":0.0017,"nx":28,"ny":28,"refTime":"2024-05-05T21:00:00:Z","depth":0,"parameterNumber":2,"parameterNumberName":"U-component_of_WINDS"},"data":[0,0,0,0,0,0,0,0,0,0,0,0,0,0,0,0,0,0,0,0,0,0,0,0,0,0,0,0,0,0,0,0,0,0,0,0,0,0,0,0,0,0,0,0,0,0,0,0,0,0,0,0,0,0,0,0,0,0,-0.0487,-0.0487,0,-0.0476,-0.0476,-0.0476,-0.0477,-0.0477,-0.0477,-0.0477,-0.0467,-0.0467,-0.0466,0,0,0,0,0,0,0,0,0,0,0,0,0,-0.0512,-0.0511,-0.0487,-0.0487,-0.0487,-0.0476,-0.0476,-0.0476,-0.0477,-0.0477,-0.0477,-0.0477,-0.0467,-0.0467,-0.0466,0,0,0,0,0,0,0,0,0,0,0,0,0,-0.0501,-0.0511,-0.0487,-0.0486,-0.0486,-0.0476,-0.0476,-0.0476,-0.0477,-0.0477,-0.0477,-0.0477,-0.0467,-0.0467,-0.0466,-0.0457,0,0,-0.0464,-0.0464,0,0,0,0,0,0,0,0,-0.0501,-0.05,-0.0486,-0.0486,-0.0486,-0.0478,-0.0481,-0.0469,-0.0477,-0.048,-0.0477,-0.0478,-0.0471,-0.047,-0.0467,-0.0457,-0.0456,-0.0464,-0.0464,-0.0464,-0.0463,0,0,0,0,0,0,0,-0.0502,-0.05,-0.0483,-0.0486,-0.0486,-0.0487,-0.0485,-0.0479,-0.0474,-0.048,-0.048,-0.0478,-0.0471,-0.0468,-0.0467,-0.0456,-0.0464,-0.0464,-0.0463,-0.0463,-0.0438,-0.0438,0,0,0,0,0,0,-0.0503,-0.0501,-0.0483,-0.0482,-0.0494,-0.0486,-0.0485,-0.048,-0.0474,-0.0474,-0.0478,-0.0479,-0.0469,-0.0468,-0.0467,-0.0456,-0.0464,-0.0463,-0.0463,-0.0439,-0.0438,-0.0438,0,0,0,0,0,0,-0.0503,-0.0501,-0.0484,-0.0492,-0.0489,-0.0485,-0.048,-0.048,-0.0477,-0.0473,-0.0472,-0.0476,-0.0469,-0.0467,-0.046,-0.0456,-0.0463,-0.0462,-0.0439,-0.0438,-0.0438,-0.0434,0,0,0,0,0,0,-0.0504,-0.0501,-0.0497,-0.0492,-0.0489,-0.0476,-0.048,-0.0479,-0.0476,-0.0476,-0.0471,-0.047,-0.0469,-0.046,-0.0459,-0.0455,-0.0462,-0.0439,-0.0439,-0.0438,-0.0435,-0.0434,-0.0433,0,0,0,0,0,-0.0505,-0.0497,-0.0497,-0.0495,-0.0484,-0.0476,-0.0475,-0.0473,-0.0475,-0.0472,-0.0469,-0.047,-0.0456,-0.046,-0.0458,-0.0454,-0.0439,-0.0439,-0.0438,-0.0435,-0.0434,-0.0433,0,0,0,0,0,0,-0.0503,-0.0496,-0.0496,-0.0486,-0.0482,-0.0476,-0.0471,-0.0472,-0.0467,-0.0467,-0.0466,-0.0465,-0.0457,-0.0454,-0.0458,-0.0445,-0.0448,-0.0447,-0.0447,-0.0445,-0.0445,-0.0446,-0.0461,0,0,0,0,0,-0.0502,-0.0495,-0.049,-0.0481,-0.0479,-0.0476,-0.0472,-0.0471,-0.0466,-0.0465,-0.0461,-0.0457,-0.0452,-0.0449,-0.0443,-0.0434,-0.0434,-0.0431,-0.043,-0.0429,-0.0428,-0.0424,-0.0423,-0.0436,-0.0436,-0.0436,0,0,-0.0498,-0.0494,-0.049,-0.0481,-0.0477,-0.0471,-0.0474,-0.0467,-0.0463,-0.0464,-0.0456,-0.0454,-0.0449,-0.0441,-0.0437,-0.0438,-0.0425,-0.0428,-0.0428,-0.0428,-0.0423,-0.0422,-0.0421,-0.0436,-0.0436,-0.0436,0,0,-0.0489,-0.0485,-0.0478,-0.0474,-0.0468,-0.0466,-0.0464,-0.0459,-0.0457,-0.0449,-0.045,-0.0445,-0.0435,-0.0432,-0.0429,-0.0419,-0.042,-0.0418,-0.0413,-0.0409,-0.0408,-0.0407,-0.0404,-0.0403,-0.0417,-0.0417,-0.0417,0,-0.0486,-0.0476,-0.0474,-0.0467,-0.0464,-0.0464,-0.0457,-0.0453,-0.0446,-0.0444,-0.0446,-0.0434,-0.0431,-0.0422,-0.042,-0.0418,-0.0416,-0.0419,-0.0408,-0.0407,-0.0407,-0.0404,-0.0402,-0.0417,-0.0417,-0.0417,-0.0417,0,-0.0473,-0.0466,-0.0461,-0.0454,-0.045,-0.0443,-0.0441,-0.0437,-0.0436,-0.0434,-0.0426,-0.0423,-0.0417,-0.0415,-0.0414,-0.0406,-0.0407,-0.0409,-0.0412,-0.0405,-0.0402,-0.0401,-0.0416,-0.0417,-0.0417,-0.0417,0,0,-0.0463,-0.0454,-0.0453,-0.045,-0.0443,-0.0438,-0.0432,-0.0426,-0.0423,-0.0418,-0.0413,-0.0405,-0.0407,-0.0403,-0.0403,-0.0399,-0.0392,-0.0401,-0.0401,-0.04,-0.0383,-0.0382,-0.0381,-0.0392,-0.0392,-0.0392,-0.0384,0,-0.0454,-0.0442,-0.0439,-0.0429,-0.0423,-0.0423,-0.0418,-0.0414,-0.0412,-0.0407,-0.0405,-0.0399,-0.0401,-0.04,-0.0396,-0.0394,-0.0389,-0.0394,-0.0388,-0.0388,-0.039,-0.0379,-0.0378,-0.0371,-0.0383,-0.0382,-0.0382,0,-0.0441,-0.0436,-0.0425,-0.042,-0.0417,-0.0412,-0.0407,-0.0402,-0.0397,-0.0396,-0.0392,-0.0392,-0.0386,-0.039,-0.0382,-0.0385,-0.0383,-0.0382,-0.0381,-0.0381,-0.0385,-0.0379,-0.0368,-0.0367,-0.038,-0.0381,-0.0381,0,-0.0436,-0.0426,-0.0418,-0.0415,-0.0409,-0.0405,-0.0402,-0.0398,-0.0395,-0.039,-0.0388,-0.0383,-0.038,-0.0376,-0.0375,-0.0378,-0.0367,-0.0371,-0.0367,-0.0367,-0.0365,-0.0365,-0.0353,-0.0362,-0.0362,-0.0362,-0.0362,0,-0.0426,-0.0419,-0.0415,-0.041,-0.0403,-0.0401,-0.0394,-0.0392,-0.0388,-0.0383,-0.0383,-0.0379,-0.0377,-0.0372,-0.0371,-0.0365,-0.0364,-0.0363,-0.0363,-0.0363,-0.0363,-0.0362,-0.0363,-0.0362,-0.0362,-0.0362,-0.0362,0,-0.0418,-0.0415,-0.0407,-0.0401,-0.04,-0.0395,-0.039,-0.0386,-0.0384,-0.0378,-0.0377,-0.0373,-0.0368,-0.0366,-0.036,-0.0359,-0.0352,-0.0352,-0.0354,-0.0354,-0.035,-0.0351,-0.0338,-0.0336,-0.0346,-0.0345,-0.0345,0,-0.0413,-0.0408,-0.0401,-0.0398,-0.0395,-0.0389,-0.0386,-0.0384,-0.038,-0.0375,-0.0371,-0.0366,-0.0361,-0.0353,-0.0351,-0.0346,-0.0346,-0.0342,-0.0346,-0.0346,-0.0347,-0.0347,-0.0347,-0.0342,-0.0341,-0.0341,-0.0341,0,-0.0403,-0.0401,-0.0396,-0.039,-0.0386,-0.0381,-0.0377,-0.0374,-0.0371,-0.0368,-0.0362,-0.0359,-0.0352,-0.0347,-0.0342,-0.034,-0.034,-0.034,-0.0339,-0.034,-0.0341,-0.034,-0.0352,-0.0341,-0.0341,-0.0341,-0.0341,-0.0341,-0.0396,-0.0392,-0.0387,-0.0381,-0.0377,-0.0373,-0.0369,-0.0366,-0.0361,-0.0356,-0.0355,-0.0349,-0.0345,-0.0338,-0.0336,-0.0332,-0.0333,-0.0331,-0.0331,-0.0331,-0.0331,-0.0341,-0.0331,-0.0331,-0.0331,-0.0331,-0.0331,0,-0.0387,-0.0384,-0.0378,-0.0372,-0.0367,-0.0368,-0.0363,-0.0359,-0.0354,-0.035,-0.0345,-0.0339,-0.0334,-0.0331,-0.0327,-0.0324,-0.0324,-0.0323,-0.0323,-0.0323,-0.033,-0.0331,-0.0323,-0.0323,-0.0323,-0.0323,-0.0323,-0.0323,-0.0382,-0.0374,-0.0372,-0.0364,-0.036,-0.0354,-0.0352,-0.0348,-0.0345,-0.0338,-0.0333,-0.0331,-0.0328,-0.0323,-0.0319,-0.0318,-0.0316,-0.0315,-0.0315,-0.0321,-0.0322,-0.0323,-0.0324,-0.0315,-0.0315,-0.0308,-0.0308,-0.0308]},{"header":{"parameterUnit":"m.s-1","parameterCategory":1,"la1":30.2991,"la2":30.254,"lo1":-89.0895,"lo2":-89.0444,"dy":0.0017,"dx":0.0017,"nx":28,"ny":28,"refTime":"2024-05-05T21:00:00:Z","depth":0,"parameterNumber":3,"parameterNumberName":"V-component_of_WINDS"},"data":[0,0,0,0,0,0,0,0,0,0,0,0,0,0,0,0,0,0,0,0,0,0,0,0,0,0,0,0,0,0,0,0,0,0,0,0,0,0,0,0,0,0,0,0,0,0,0,0,0,0,0,0,0,0,0,0,0,0,4.0711,4.0711,0,4.077,4.077,4.0771,4.0737,4.0736,4.0734,4.0732,4.0789,4.0792,4.0795,0,0,0,0,0,0,0,0,0,0,0,0,0,4.0563,4.0566,4.0711,4.0711,4.0712,4.077,4.077,4.0771,4.0738,4.0736,4.0734,4.0732,4.0788,4.0791,4.0795,0,0,0,0,0,0,0,0,0,0,0,0,0,4.0625,4.0567,4.071,4.0702,4.0702,4.0769,4.077,4.0771,4.0738,4.0735,4.0733,4.0731,4.0786,4.0791,4.0795,4.0873,0,0,4.0809,4.0811,0,0,0,0,0,0,0,0,4.0622,4.0631,4.0703,4.0703,4.0703,4.0744,4.0739,4.0805,4.0739,4.0724,4.0732,4.073,4.0775,4.0781,4.0797,4.0875,4.0878,4.081,4.0812,4.0814,4.0816,0,0,0,0,0,0,0,4.0618,4.0628,4.0734,4.0704,4.0704,4.0694,4.07,4.0751,4.0763,4.0725,4.0723,4.0731,4.0775,4.0793,4.0798,4.0878,4.0809,4.0813,4.0816,4.0818,4.1021,4.1023,0,0,0,0,0,0,4.0615,4.0625,4.0732,4.0736,4.0656,4.0699,4.0705,4.0733,4.0762,4.0764,4.0733,4.0729,4.0786,4.0793,4.08,4.089,4.0814,4.0818,4.0821,4.1018,4.1021,4.1024,0,0,0,0,0,0,4.0612,4.0624,4.073,4.068,4.0692,4.0704,4.0735,4.0735,4.0753,4.0768,4.0769,4.0749,4.0784,4.0793,4.0855,4.0892,4.0821,4.0825,4.1015,4.1019,4.1023,4.1073,0,0,0,0,0,0,4.0607,4.0624,4.0654,4.0681,4.0695,4.0785,4.0737,4.0738,4.0762,4.0757,4.0784,4.0786,4.0783,4.0848,4.0859,4.0897,4.0828,4.1011,4.1017,4.1021,4.1068,4.1079,4.1088,0,0,0,0,0,4.0602,4.0666,4.0656,4.0669,4.0734,4.0787,4.0795,4.0793,4.0765,4.0795,4.0804,4.0785,4.0887,4.0855,4.0867,4.0907,4.1009,4.1015,4.1021,4.1064,4.1077,4.1087,0,0,0,0,0,0,4.0642,4.0669,4.0659,4.0733,4.0758,4.0781,4.0819,4.0806,4.0839,4.0833,4.0827,4.0833,4.0896,4.0908,4.0872,4.0982,4.0943,4.0952,4.0972,4.0984,4.0993,4.0988,4.0832,0,0,0,0,0,4.066,4.0703,4.0723,4.0787,4.08,4.0808,4.0831,4.0827,4.0852,4.0862,4.0875,4.0899,4.0936,4.0961,4.0996,4.107,4.1074,4.1104,4.1113,4.1121,4.1128,4.1166,4.1178,4.1044,4.1044,4.1044,0,0,4.0697,4.0716,4.0743,4.0795,4.0814,4.0856,4.0817,4.0864,4.0894,4.0868,4.0927,4.0938,4.0964,4.1031,4.1062,4.1043,4.1166,4.1129,4.1135,4.1137,4.1173,4.1186,4.1197,4.1048,4.1047,4.1046,0,0,4.0784,4.0805,4.0859,4.0879,4.0909,4.0913,4.0926,4.0952,4.0958,4.1017,4.0998,4.1034,4.1099,4.1118,4.1136,4.123,4.1212,4.1242,4.129,4.1327,4.1338,4.1347,4.1379,4.139,4.1249,4.1249,4.1249,0,4.0825,4.089,4.0888,4.0936,4.0958,4.0939,4.0992,4.1011,4.105,4.1065,4.1044,4.1124,4.114,4.1211,4.1234,4.125,4.1263,4.1238,4.1337,4.1346,4.1355,4.1385,4.1397,4.1252,4.1252,4.1251,4.1251,0,4.0938,4.0983,4.1023,4.1062,4.1089,4.114,4.1143,4.1171,4.1164,4.117,4.1229,4.1248,4.1286,4.1303,4.1297,4.1372,4.1359,4.1338,4.1298,4.1371,4.1399,4.141,4.1257,4.1256,4.1255,4.1254,0,0,4.1052,4.1089,4.1104,4.1121,4.1152,4.1186,4.1234,4.1273,4.1295,4.1323,4.1362,4.1417,4.1397,4.1418,4.1413,4.1446,4.1517,4.142,4.1421,4.1436,4.1599,4.1613,4.1627,4.1506,4.1509,4.151,4.1596,0,4.114,4.1227,4.1226,4.1305,4.1345,4.1327,4.1369,4.1392,4.1399,4.1432,4.144,4.1478,4.145,4.1462,4.1494,4.1502,4.1549,4.1496,4.154,4.1542,4.1533,4.1642,4.1657,4.1737,4.1607,4.1609,4.161,0,4.1254,4.1286,4.137,4.1394,4.1411,4.1449,4.1483,4.1516,4.1541,4.1543,4.1567,4.1557,4.1604,4.1565,4.1629,4.1593,4.1611,4.1618,4.1621,4.1623,4.1579,4.1645,4.1763,4.1774,4.1627,4.1626,4.1625,0,4.1326,4.139,4.1448,4.1464,4.1494,4.1521,4.1534,4.1556,4.1579,4.1608,4.1622,4.1657,4.1675,4.1701,4.17,4.1672,4.1764,4.1725,4.1766,4.1766,4.1784,4.1783,4.1904,4.18,4.18,4.1799,4.1799,0,4.1423,4.1475,4.1481,4.1516,4.1573,4.1571,4.1626,4.1637,4.1657,4.1692,4.1678,4.1712,4.171,4.1743,4.1742,4.1794,4.1803,4.1805,4.1804,4.1805,4.1804,4.1815,4.1809,4.1802,4.1802,4.1801,4.1801,0,4.1513,4.1519,4.1581,4.1604,4.1611,4.1652,4.1671,4.1703,4.1709,4.1755,4.1765,4.1774,4.1812,4.1814,4.1858,4.1858,4.192,4.1914,4.1912,4.191,4.1949,4.1945,4.2081,4.2098,4.1984,4.1985,4.1986,0,4.1573,4.1613,4.164,4.1664,4.1679,4.1717,4.174,4.174,4.1764,4.1794,4.1823,4.186,4.189,4.1952,4.1961,4.1994,4.1987,4.2032,4.1992,4.1991,4.1985,4.1982,4.1985,4.2039,4.2041,4.2042,4.2043,0,4.168,4.1681,4.1716,4.1751,4.1779,4.1807,4.1832,4.1852,4.1854,4.1882,4.1921,4.1944,4.199,4.2026,4.2058,4.207,4.2056,4.2056,4.2066,4.2067,4.2063,4.2064,4.1931,4.2052,4.2051,4.205,4.205,4.2049,4.1755,4.1789,4.1813,4.1852,4.1871,4.1895,4.1926,4.1937,4.197,4.2007,4.2005,4.2048,4.207,4.2112,4.2126,4.2159,4.2143,4.2159,4.2163,4.2166,4.2169,4.206,4.2165,4.2165,4.2164,4.2164,4.2164,0,4.1859,4.1874,4.191,4.1946,4.1976,4.1962,4.1989,4.2015,4.2053,4.2076,4.2105,4.215,4.2185,4.2197,4.223,4.2254,4.2248,4.2263,4.226,4.2262,4.2183,4.2169,4.2267,4.2267,4.2267,4.2266,4.2266,4.2266,4.1917,4.1972,4.1975,4.2039,4.2053,4.2096,4.2113,4.2134,4.2152,4.2203,4.2232,4.224,4.2258,4.2292,4.2323,4.2326,4.2337,4.2354,4.2354,4.2279,4.2268,4.2258,4.2245,4.2357,4.2357,4.243,4.2431,4.2432]}]]